EW1689 Weather Reports


Display with metric or nautical units.
time (UTC)temp
F
wind
direction
speed
MPH
gust
MPH
rain 1hr
in
rain 24hr
in
rain mn
in
humidity
%
barometer
mb
20260503013516 86 0.0 2.0 0.00 0.00 0.00 16 1009.5
20260503012517 86 0 1.0 4.0 0.00 0.00 0.00 16 1009.5
20260503011517 86 0.0 1.0 0.00 0.00 0.00 16 1009.5
20260503010517 86 0 1.0 4.0 0.00 0.00 0.00 16 1009.6
20260503005517 87 0 1.0 3.0 0.00 0.00 0.00 16 1009.6
20260503004518 87 0 1.0 3.0 0.00 0.00 0.00 16 1009.6
20260503003517 87 0 2.0 5.0 0.00 0.00 0.00 16 1009.7
20260503002517 88 0 2.0 6.0 0.00 0.00 0.00 15 1009.8
20260503001517 88 0.0 2.0 0.00 0.00 0.00 17 1010.0
20260503000558 88 0.0 1.0 0.00 0.00 0.00 17 1009.9
20260502235517 88 0 1.0 3.0 0.00 0.00 0.00 16 1009.9
20260502234517 88 0 2.0 5.0 0.00 0.00 0.00 17 1010.0
20260502233517 88 0.0 4.0 0.00 0.00 0.00 17 1010.1
20260502232517 88 0.0 2.0 0.00 0.00 0.00 18 1010.1
20260502231517 88 0.0 1.0 0.00 0.00 0.00 18 1010.0
20260502230557 88 0 1.0 4.0 0.00 0.00 0.00 17 1010.2
20260502225537 88 0 1.0 2.0 0.00 0.00 0.00 16 1010.3
20260502224517 89 0 1.0 2.0 0.00 0.00 0.00 17 1010.4
20260502223517 88 0 1.0 4.0 0.00 0.00 0.00 17 1010.6
20260502222537 89 0 3.0 6.0 0.00 0.00 0.00 17 1010.8
20260502221537 89 0 1.0 3.0 0.00 0.00 0.00 18 1010.9
20260502220517 89 0 3.0 10.0 0.00 0.00 0.00 18 1011.1
20260502215517 90 0 2.0 4.0 0.00 0.00 0.00 18 1011.1
20260502214517 89 0 1.0 6.0 0.00 0.00 0.00 19 1011.3
20260502213518 89 0 1.0 3.0 0.00 0.00 0.00 19 1011.5
20260502212517 88 0 2.0 5.0 0.00 0.00 0.00 19 1011.6
20260502211517 88 0 2.0 5.0 0.00 0.00 0.00 19 1011.8
20260502210517 90 0 2.0 4.0 0.00 0.00 0.00 17 1012.1
20260502205517 93 158 1.0 4.0 0.00 0.00 0.00 15 1012.5
20260502204517 92 225 1.0 6.0 0.00 0.00 0.00 15 1012.6
20260502203517 90 0 1.0 3.0 0.00 0.00 0.00 16 1012.7
20260502202518 88 0 1.0 3.0 0.00 0.00 0.00 16 1012.7
20260502201517 88 0 1.0 4.0 0.00 0.00 0.00 15 1012.6
20260502200516 88 0 1.0 5.0 0.00 0.00 0.00 12 1012.9
20260502195516 87 0 3.0 6.0 0.00 0.00 0.00 16 1012.9
20260502194517 87 0 2.0 7.0 0.00 0.00 0.00 18 1013.1
20260502193537 87 0 1.0 4.0 0.00 0.00 0.00 18 1013.1
20260502192517 86 0 2.0 4.0 0.00 0.00 0.00 18 1013.3
20260502191517 86 0 2.0 5.0 0.00 0.00 0.00 20 1013.5
20260502190537 86 0 4.0 10.0 0.00 0.00 0.00 19 1013.7
20260502185516 86 0 2.0 3.0 0.00 0.00 0.00 19 1013.8
20260502184518 86 0 2.0 6.0 0.00 0.00 0.00 20 1014.0
20260502183516 86 0 3.0 7.0 0.00 0.00 0.00 20 1014.1
20260502182516 85 0 2.0 5.0 0.00 0.00 0.00 21 1014.4
20260502181517 85 0 2.0 5.0 0.00 0.00 0.00 21 1014.5
20260502180516 84 0 2.0 7.0 0.00 0.00 0.00 20 1014.5
20260502170516 82 0 4.0 7.0 0.00 0.00 0.00 28 1014.8
20260502163516 80 0 6.0 11.0 0.00 0.00 0.00 29 1014.7
20260502162517 80 0 4.0 8.0 0.00 0.00 0.00 30 1014.7
20260502161516 80 0 4.0 11.0 0.00 0.00 0.00 30 1014.5
20260502160516 79 0 4.0 10.0 0.00 0.00 0.00 30 1014.4
20260502151516 78 0 4.0 11.0 0.00 0.00 0.00 31 1014.4
20260502150536 78 0 3.0 6.0 0.00 0.00 0.00 27 1014.3
20260502130515 68 0.0 0.0 0.00 0.00 0.00 27 1012.8
20260502123515 68 0.0 0.0 0.00 0.00 0.00 27 1012.4
20260502122535 68 0.0 0.0 0.00 0.00 0.00 26 1012.4
20260502121515 69 0.0 1.0 0.00 0.00 0.00 26 1012.4
20260502120536 69 0.0 1.0 0.00 0.00 0.00 25 1012.3
20260502115516 70 0.0 1.0 0.00 0.00 0.00 25 1012.4
20260502114516 70 0.0 1.0 0.00 0.00 0.00 25 1012.3
20260502113516 70 0.0 1.0 0.00 0.00 0.00 25 1012.3
20260502112516 70 0.0 1.0 0.00 0.00 0.00 25 1012.3
20260502111515 70 0.0 1.0 0.00 0.00 0.00 25 1012.3
20260502110517 70 0.0 1.0 0.00 0.00 0.00 25 1012.2
20260502105518 70 0.0 1.0 0.00 0.00 0.00 25 1012.3
20260502104518 71 0.0 0.0 0.00 0.00 0.00 25 1012.2
20260502103658 71 0.0 2.0 0.00 0.00 0.00 24 1012.2
20260502102517 71 0.0 1.0 0.00 0.00 0.00 24 1012.2
20260502101518 70 0.0 2.0 0.00 0.00 0.00 25 1012.1
20260502100517 70 0.0 1.0 0.00 0.00 0.00 25 1012.0
20260502091517 70 0.0 0.0 0.00 0.00 0.00 27 1011.8
20260502090517 71 0.0 0.0 0.00 0.00 0.00 26 1011.8
20260502071517 72 0.0 0.0 0.00 0.00 0.00 26 1011.4
20260502070517 73 0.0 1.0 0.00 0.00 0.00 26 1011.5
20260502065536 73 0.0 0.0 0.00 0.00 0.00 26 1011.5
20260502064516 73 0.0 1.0 0.00 0.00 0.00 25 1011.4
20260502063516 73 0.0 0.0 0.00 0.00 0.00 27 1011.1
20260502062516 73 0.0 0.0 0.00 0.00 0.00 27 1010.9
20260502061516 73 0.0 0.0 0.00 0.00 0.00 28 1010.8
20260502060557 74 0.0 0.0 0.00 0.00 0.00 27 1010.7
20260502055516 75 0.0 0.0 0.00 0.00 0.00 26 1010.8
20260502054516 75 0.0 2.0 0.00 0.00 0.00 25 1010.5
20260502053536 75 0.0 1.0 0.00 0.00 0.00 25 1010.4
20260502052516 75 0.0 0.0 0.00 0.00 0.00 25 1010.3
20260502051536 76 0.0 0.0 0.00 0.00 0.00 25 1010.3
20260502050516 76 0.0 1.0 0.00 0.00 0.00 25 1010.4
20260502045516 76 0 1.0 2.0 0.00 0.00 0.00 24 1010.3
20260502044517 76 0 1.0 2.0 0.00 0.00 0.00 24 1010.1
20260502043516 76 0 1.0 1.0 0.00 0.00 0.00 24 1010.0
20260502042516 76 0.0 2.0 0.00 0.00 0.00 24 1009.8
20260502041516 76 0.0 0.0 0.00 0.00 0.00 24 1009.6
20260502040516 76 0.0 3.0 0.00 0.00 0.00 24 1009.4
20260502035556 76 0.0 2.0 0.00 0.00 0.00 24 1009.3
20260502034517 77 0.0 1.0 0.00 0.00 0.00 24 1009.2
20260502033516 77 0.0 1.0 0.00 0.00 0.00 23 1009.1
20260502032536 78 0 1.0 2.0 0.00 0.00 0.00 23 1009.1
20260502031536 78 0.0 1.0 0.00 0.00 0.00 22 1008.8
20260502030516 79 0.0 0.0 0.00 0.00 0.00 22 1008.8
20260502025516 79 0.0 1.0 0.00 0.00 0.00 21 1008.7
20260502024516 80 0.0 2.0 0.00 0.00 0.00 21 1008.5
20260502023516 80 0 1.0 3.0 0.00 0.00 0.00 21 1008.4
20260502023126 80 0 1.0 3.0 0.00 0.00 0.00 21 1008.3
20260502022036 81 0 1.0 3.0 0.00 0.00 0.00 21 1008.2
20260502021016 81 0 1.0 4.0 0.00 0.00 0.00 21 1008.2
20260502020016 81 0 1.0 3.0 0.00 0.00 0.00 20 1008.1
20260502015015 82 0 1.0 3.0 0.00 0.00 0.00 20 1007.9
20260502014027 82 0.0 1.0 0.00 0.00 0.00 19 1007.9